[keps] orb09001.amsat

Ray Hoad r.hoad at att.net
Thu Jan 1 19:25:11 PST 2009


SB KEPS @ AMSAT  $ORB09001.O
Orbital Elements  09001.OSCAR

HR AMSAT ORBITAL ELEMENTS FOR OSCAR SATELLITES
FROM WA5QGD FORT WORTH,TX January 1, 2009
Send Subscribe/unsubscribe to KEPS at 
http://www.amsat.org/mailman/listinfo/keps
BID: ORB09001.O
TO ALL RADIO AMATEURS BT

Satellite: AO-07
Catalog number: 07530
Epoch time:      09001.69239065
Element set:     367
Inclination:      101.4450 deg
RA of node:       032.3782 deg
Eccentricity:    0.0011848
Arg of perigee:   234.3511 deg
Mean anomaly:     125.6459 deg
Mean motion:   12.53574970 rev/day
Decay rate:       -2.7e-07 rev/day^2
Epoch rev:           56185
Checksum:              290

Satellite: AO-10
Catalog number: 14129
Epoch time:      09001.23331382
Element set:     603
Inclination:      026.0301 deg
RA of node:       178.4344 deg
Eccentricity:    0.5961997
Arg of perigee:   186.2291 deg
Mean anomaly:     160.4046 deg
Mean motion:   02.05868431 rev/day
Decay rate:       1.30e-06 rev/day^2
Epoch rev:           19218
Checksum:              273

Satellite: UO-11
Catalog number: 14781
Epoch time:      09001.66121005
Element set:     850
Inclination:      098.1310 deg
RA of node:       044.4011 deg
Eccentricity:    0.0009611
Arg of perigee:   148.8066 deg
Mean anomaly:     211.3716 deg
Mean motion:   14.79685320 rev/day
Decay rate:      -2.21e-06 rev/day^2
Epoch rev:           33320
Checksum:              246

Satellite: RS-15
Catalog number: 23439
Epoch time:      09001.86047179
Element set:     170
Inclination:      064.8126 deg
RA of node:       173.7783 deg
Eccentricity:    0.0145945
Arg of perigee:   084.1276 deg
Mean anomaly:     277.6261 deg
Mean motion:   11.27553551 rev/day
Decay rate:       -3.9e-07 rev/day^2
Epoch rev:           57736
Checksum:              324

Satellite: FO-29
Catalog number: 24278
Epoch time:      09001.83280979
Element set:     940
Inclination:      098.5772 deg
RA of node:       258.0075 deg
Eccentricity:    0.0351215
Arg of perigee:   061.3575 deg
Mean anomaly:     302.2408 deg
Mean motion:   13.52941568 rev/day
Decay rate:        1.1e-07 rev/day^2
Epoch rev:           61125
Checksum:              303

Satellite: SO-33
Catalog number: 25509
Epoch time:      08366.16232967
Element set:     357
Inclination:      031.4356 deg
RA of node:       282.5871 deg
Eccentricity:    0.0354901
Arg of perigee:   309.2816 deg
Mean anomaly:     047.6825 deg
Mean motion:   14.28233406 rev/day
Decay rate:       -2.6e-07 rev/day^2
Epoch rev:           53179
Checksum:              317

Satellite: AO-40
Catalog number: 26609
Epoch time:      08365.31891480
Element set:     173
Inclination:      008.3921 deg
RA of node:       040.7444 deg
Eccentricity:    0.7940604
Arg of perigee:   160.4241 deg
Mean anomaly:     269.7479 deg
Mean motion:   01.25586134 rev/day
Decay rate:       -2.6e-07 rev/day^2
Epoch rev:            3750
Checksum:              302

Satellite: VO-52
Catalog number: 28650
Epoch time:      09001.16423496
Element set:     118
Inclination:      097.7667 deg
RA of node:       068.0800 deg
Eccentricity:    0.0026547
Arg of perigee:   213.0054 deg
Mean anomaly:     146.9473 deg
Mean motion:   14.81539798 rev/day
Decay rate:       3.41e-06 rev/day^2
Epoch rev:           19791
Checksum:              320

Satellite: PO-63
Catalog number: 29712
Epoch time:      09001.82097754
Element set:     109
Inclination:      097.8530 deg
RA of node:       062.0347 deg
Eccentricity:    0.0015299
Arg of perigee:   095.7922 deg
Mean anomaly:     264.5026 deg
Mean motion:   14.80395831 rev/day
Decay rate:       5.07e-06 rev/day^2
Epoch rev:           10685
Checksum:              315

/EX
SB KEPS @ AMSAT  $ORB09001.D
Orbital Elements  09001.MICROS

HR AMSAT ORBITAL ELEMENTS FOR THE MICROSATS
FROM WA5QGD FORT WORTH,TX January 1, 2009
Send Subscribe/unsubscribe to KEPS at 
http://www.amsat.org/mailman/listinfo/keps
BID: ORB09001.D
TO ALL RADIO AMATEURS BT

Satellite: AO-16
Catalog number: 20439
Epoch time:      09001.67633673
Element set:     500
Inclination:      098.2568 deg
RA of node:       337.8601 deg
Eccentricity:    0.0010210
Arg of perigee:   310.1121 deg
Mean anomaly:     049.9167 deg
Mean motion:   14.31812034 rev/day
Decay rate:       -3.0e-07 rev/day^2
Epoch rev:           98932
Checksum:              269

Satellite: LO-19
Catalog number: 20442
Epoch time:      09001.69080596
Element set:     424
Inclination:      098.2230 deg
RA of node:       345.7596 deg
Eccentricity:    0.0011224
Arg of perigee:   306.8069 deg
Mean anomaly:     053.2086 deg
Mean motion:   14.32049449 rev/day
Decay rate:       -6.0e-08 rev/day^2
Epoch rev:           98948
Checksum:              311

Satellite: AO-27
Catalog number: 22825
Epoch time:      08366.97056531
Element set:     142
Inclination:      098.4150 deg
RA of node:       319.8667 deg
Eccentricity:    0.0009088
Arg of perigee:   041.7845 deg
Mean anomaly:     318.4043 deg
Mean motion:   14.29255477 rev/day
Decay rate:        5.7e-07 rev/day^2
Epoch rev:           79602
Checksum:              331

Satellite: IO-26
Catalog number: 22826
Epoch time:      09001.48006488
Element set:     860
Inclination:      098.4080 deg
RA of node:       321.1806 deg
Eccentricity:    0.0009591
Arg of perigee:   037.0315 deg
Mean anomaly:     323.1533 deg
Mean motion:   14.29505550 rev/day
Decay rate:       -1.9e-07 rev/day^2
Epoch rev:           79619
Checksum:              293

Satellite: GO-32
Catalog number: 25397
Epoch time:      09001.65712251
Element set:     786
Inclination:      098.3432 deg
RA of node:       032.7884 deg
Eccentricity:    0.0001787
Arg of perigee:   048.3114 deg
Mean anomaly:     311.8207 deg
Mean motion:   14.23152891 rev/day
Decay rate:       -9.6e-07 rev/day^2
Epoch rev:           54444
Checksum:              302

Satellite: NO-44
Catalog number: 26931
Epoch time:      09001.84271282
Element set:      64
Inclination:      067.0511 deg
RA of node:       132.8861 deg
Eccentricity:    0.0006026
Arg of perigee:   257.9820 deg
Mean anomaly:     102.0613 deg
Mean motion:   14.29543691 rev/day
Decay rate:       -2.3e-07 rev/day^2
Epoch rev:           37880
Checksum:              279

Satellite: SO-50
Catalog number: 27607
Epoch time:      09001.67361646
Element set:     779
Inclination:      064.5554 deg
RA of node:       170.8162 deg
Eccentricity:    0.0082133
Arg of perigee:   240.7346 deg
Mean anomaly:     118.5516 deg
Mean motion:   14.71404475 rev/day
Decay rate:      -1.00e-06 rev/day^2
Epoch rev:           32417
Checksum:              289

Satellite: CO-55
Catalog number: 27844
Epoch time:      09001.77481061
Element set:     478
Inclination:      098.7151 deg
RA of node:       013.2801 deg
Eccentricity:    0.0009059
Arg of perigee:   263.9257 deg
Mean anomaly:     096.0898 deg
Mean motion:   14.20615354 rev/day
Decay rate:        4.8e-07 rev/day^2
Epoch rev:           28563
Checksum:              319

Satellite: CO-57
Catalog number: 27848
Epoch time:      09001.58845102
Element set:     426
Inclination:      098.7156 deg
RA of node:       012.1632 deg
Eccentricity:    0.0009156
Arg of perigee:   269.2475 deg
Mean anomaly:     090.7639 deg
Mean motion:   14.20420756 rev/day
Decay rate:        2.9e-07 rev/day^2
Epoch rev:           28557
Checksum:              317

Satellite: AO-51
Catalog number: 28375
Epoch time:      09001.62097809
Element set:     281
Inclination:      098.0574 deg
RA of node:       020.8934 deg
Eccentricity:    0.0083220
Arg of perigee:   271.3450 deg
Mean anomaly:     087.8212 deg
Mean motion:   14.40629211 rev/day
Decay rate:        3.0e-08 rev/day^2
Epoch rev:           23697
Checksum:              289

Satellite: CO-56
Catalog number: 28941
Epoch time:      09001.85067633
Element set:     686
Inclination:      098.1255 deg
RA of node:       147.6379 deg
Eccentricity:    0.0129469
Arg of perigee:   033.9625 deg
Mean anomaly:     326.9821 deg
Mean motion:   15.68625785 rev/day
Decay rate:     3.2755e-04 rev/day^2
Epoch rev:           16105
Checksum:              356

Satellite: CP3
Catalog number: 31128
Epoch time:      09001.11373423
Element set:     520
Inclination:      098.0158 deg
RA of node:       061.9144 deg
Eccentricity:    0.0104127
Arg of perigee:   082.8555 deg
Mean anomaly:     278.4476 deg
Mean motion:   14.52005935 rev/day
Decay rate:       -4.6e-07 rev/day^2
Epoch rev:            9065
Checksum:              276

Satellite: CP4
Catalog number: 31132
Epoch time:      09001.54033438
Element set:     498
Inclination:      098.0200 deg
RA of node:       065.4776 deg
Eccentricity:    0.0086896
Arg of perigee:   072.4670 deg
Mean anomaly:     288.6006 deg
Mean motion:   14.55172535 rev/day
Decay rate:       1.63e-06 rev/day^2
Epoch rev:            9079
Checksum:              304

Satellite: CO-65
Catalog number: 32785
Epoch time:      09001.22868296
Element set:     252
Inclination:      097.9697 deg
RA of node:       066.3871 deg
Eccentricity:    0.0014379
Arg of perigee:   210.2532 deg
Mean anomaly:     149.7853 deg
Mean motion:   14.81433453 rev/day
Decay rate:       1.84e-06 rev/day^2
Epoch rev:            3672
Checksum:              329

/EX
SB KEPS @ AMSAT  $ORB09001.W
Orbital Elements  09001.WEATHER

HR AMSAT ORBITAL ELEMENTS FOR WEATHER SATELLITES
FROM WA5QGD FORT WORTH,TX January 1, 2009
Send Subscribe/unsubscribe to KEPS at 
http://www.amsat.org/mailman/listinfo/keps
BID: ORB09001.W
TO ALL RADIO AMATEURS BT

Satellite: NOAA-10
Catalog number: 16969
Epoch time:      09001.46390867
Element set:     438
Inclination:      098.7077 deg
RA of node:       028.8863 deg
Eccentricity:    0.0012022
Arg of perigee:   326.8590 deg
Mean anomaly:     033.1857 deg
Mean motion:   14.27377081 rev/day
Decay rate:        2.8e-07 rev/day^2
Epoch rev:           15972
Checksum:              325

